Location: Elk County Emergency Medical Services
(37.4682°N, 96.2654°W)
Time: 21:02:48
(UTC+00:00)

Daily predictions for brighter satellites

Satellite Brightness Start Highest point End
(mag) Time Altitude Azimuth Time Altitude Azimuth Time Altitude Azimuth
USA 116 3.6 12:00:41 10° SSE 12:04:47 86° W 12:08:25 10° NNW
Cosmos 1954 Rocket 4.4 12:00:25 10° SW 12:05:24 43° WNW 12:10:22 10° N
Cosmos 1707 4.3 12:03:29 10° WSW 12:06:00 16° WNW 12:08:32 10° NNW
Cosmos 1470 4.4 12:04:58 10° NW 12:07:08 14° W 12:09:17 10° WSW
Cosmos 2218 Rocket 4.4 12:02:49 10° S 12:09:11 74° E 12:15:31 10° N
Cosmos 1356 3.6 12:06:19 10° NNW 12:09:39 48° W 12:12:59 10° S
